Tracking 20093 objects as of 14-Dec-2019
HD Live streaming from Space Station
objects crossing your sky now

COSMOS 2251 DEB

Track COSMOS 2251 DEB now!
10-day predictions


NORAD ID: 35825
Int'l Code: 1993-036ASX
Perigee: 753.1 km
Apogee: 1,311.9 km
Inclination: 74.1 °
Period: 105.7 minutes
Semi major axis: 7403 km
RCS: 0.0121 m2 (small)
Launch date: June 16, 1993
Source: Commonwealth of Independent States (former USSR) (CIS)
Launch site: PLESETSK MISSILE AND SPACE COMPLEX (PKMTR)

Note: This is SATELLITE DEBRIS
aabbcc
Your satellite tracking list
Your tracking list is empty




NASA's NSSDC Master Catalog

Two Line Element Set (TLE):
1 35825U 93036ASX 19345.07123599  .00000358  00000-0  30048-3 0  9996
2 35825  74.1170 115.1737 0377392   8.4881 352.2377 13.62852720531891
Source of the keplerian elements: AFSPC